TimeEST,TemperatureF,Dew PointF,Humidity,Sea Level PressureIn,VisibilityMPH,Wind Direction,Wind SpeedMPH,Gust SpeedMPH,PrecipitationIn,Events,Conditions,WindDirDegrees,DateUTC
12:51 AM,28.9,21.0,72,30.51,10.0,North,3.5,-,N/A,,Clear,10,2012-11-15 05:51:00
1:51 AM,28.0,21.0,75,30.53,10.0,Calm,Calm,-,N/A,,Partly Cloudy,0,2012-11-15 06:51:00
2:51 AM,28.0,21.9,78,30.52,10.0,North,4.6,-,N/A,,Partly Cloudy,350,2012-11-15 07:51:00
3:51 AM,28.0,24.1,85,30.49,10.0,North,3.5,-,N/A,,Mostly Cloudy,350,2012-11-15 08:51:00
4:51 AM,26.1,21.9,84,30.51,10.0,Calm,Calm,-,N/A,,Mostly Cloudy,0,2012-11-15 09:51:00
5:51 AM,26.1,21.9,84,30.51,10.0,Calm,Calm,-,N/A,,Overcast,0,2012-11-15 10:51:00
6:51 AM,26.1,24.1,92,30.51,10.0,Calm,Calm,-,N/A,,Mostly Cloudy,0,2012-11-15 11:51:00
7:51 AM,28.0,24.1,85,30.51,10.0,North,3.5,-,N/A,,Mostly Cloudy,360,2012-11-15 12:51:00
8:51 AM,30.9,25.0,79,30.51,10.0,North,3.5,-,N/A,,Overcast,360,2012-11-15 13:51:00
9:51 AM,34.0,26.1,73,30.49,10.0,North,6.9,-,N/A,,Mostly Cloudy,350,2012-11-15 14:51:00
10:51 AM,36.0,25.0,64,30.48,10.0,Calm,Calm,-,N/A,,Mostly Cloudy,0,2012-11-15 15:51:00
11:51 AM,39.0,25.0,57,30.44,10.0,Calm,Calm,-,N/A,,Mostly Cloudy,0,2012-11-15 16:51:00
12:51 PM,39.9,24.1,53,30.41,10.0,NNW,3.5,-,N/A,,Mostly Cloudy,330,2012-11-15 17:51:00
1:51 PM,39.9,26.1,58,30.40,10.0,NW,5.8,-,N/A,,Overcast,320,2012-11-15 18:51:00
2:51 PM,39.0,24.1,55,30.39,10.0,North,3.5,-,N/A,,Mostly Cloudy,350,2012-11-15 19:51:00
3:51 PM,37.9,25.0,60,30.39,10.0,Calm,Calm,-,N/A,,Mostly Cloudy,0,2012-11-15 20:51:00
4:51 PM,37.0,25.0,62,30.38,10.0,Calm,Calm,-,N/A,,Scattered Clouds,0,2012-11-15 21:51:00
5:51 PM,32.0,25.0,75,30.39,10.0,Calm,Calm,-,N/A,,Scattered Clouds,0,2012-11-15 22:51:00
6:51 PM,30.9,24.1,76,30.38,10.0,Calm,Calm,-,N/A,,Scattered Clouds,0,2012-11-15 23:51:00
7:51 PM,30.0,25.0,82,30.38,10.0,Calm,Calm,-,N/A,,Partly Cloudy,0,2012-11-16 00:51:00
8:51 PM,28.0,24.1,85,30.38,10.0,Calm,Calm,-,N/A,,Partly Cloudy,0,2012-11-16 01:51:00
9:51 PM,28.0,24.1,85,30.37,10.0,Calm,Calm,-,N/A,,Partly Cloudy,0,2012-11-16 02:51:00
10:51 PM,27.0,24.1,89,30.36,10.0,Calm,Calm,-,N/A,,Scattered Clouds,0,2012-11-16 03:51:00
11:51 PM,28.0,25.0,88,30.35,10.0,North,3.5,-,N/A,,Scattered Clouds,350,2012-11-16 04:51:00